Princeton, MN

6:32 PM CDT on April 30, 2017 (GMT -0500)
Princeton Municipal

Weather History for KPNM - March, 2013

Change the Weather History Date:

Tuesday, March 19, 2013

  Actual Average Record
Temperature  
Mean Temperature 11 °F -  
Max Temperature 19 °F 37 °F 78 °F (2012)
Min Temperature 3 °F 19 °F 3 °F (2013)
Degree Days  
Heating Degree Days 54    
Moisture  
Dew Point 0 °F    
Average Humidity 61    
Maximum Humidity 78    
Minimum Humidity 46    
Precipitation  
Precipitation 0.00 in - - ()
Sea Level Pressure  
Sea Level Pressure 29.99 in    
Wind  
Wind Speed 17 mph (West)    
Max Wind Speed 24 mph    
Max Gust Speed 31 mph    
Visibility 10 miles    
Events Snow    
Averages and records for this station are not official NWS values.
T = Trace of Precipitation, MM = Missing Value Source: NWS Daily Summary

Daily Weather History Graph

Daily Weather History Graph

Search for Another Location

Airport or City:

Trip Planner

Search our weather history database for the weather conditions in past years. The results will help you decide how hot, cold, wet, or windy it might be!

Date:

Astronomy

Mar. 19, 2013 Rise Set
Actual Time 7:18 AM CDT 7:26 PM CDT
Civil Twilight 6:49 AM CDT 7:55 PM CDT
Nautical Twilight 6:14 AM CDT 8:30 PM CDT
Astronomical Twilight 5:39 AM CDT 9:06 PM CDT
Moon 11:53 AM CDT (3/19) 2:29 AM CDT (3/19)
Length of Visible Light 13h 06m
Length of Day
12h 07m
Waxing Crescent, 50% of the Moon is Illuminated
Mar 19
Waxing Crescent
Mar 19
First Quarter
Mar 27
Full
Apr 2
Last Quarter
Apr 10
New

Hourly Weather History & Observations

Time (CDT) Temp. Windchill Dew Point Humidity Pressure Visibility Wind Dir Wind Speed Gust Speed Precip Events Conditions
12:11 AM 10.4 °F -8.6 °F 1.4 °F 67% 29.77 in 10.0 mi West 20.7 mph 26.5 mph N/A   Clear
12:31 AM 10.4 °F -6.6 °F 3.2 °F 73% 29.77 in 10.0 mi West 16.1 mph 26.5 mph N/A   Clear
1:11 AM 10.4 °F -9.9 °F 1.4 °F 67% 29.77 in 10.0 mi West 24.2 mph 31.1 mph N/A   Clear
1:31 AM 8.6 °F -10.5 °F 1.4 °F 73% 29.78 in 10.0 mi West 19.6 mph 27.6 mph N/A   Clear
1:51 AM 8.6 °F -11.4 °F 1.4 °F 73% 29.79 in 10.0 mi West 21.9 mph 29.9 mph N/A   Clear
2:11 AM 8.6 °F -11.4 °F 1.4 °F 73% 29.80 in 10.0 mi West 21.9 mph 28.8 mph N/A   Clear
2:31 AM 8.6 °F -8.9 °F 1.4 °F 73% 29.81 in 10.0 mi West 16.1 mph 26.5 mph N/A   Clear
2:51 AM 8.6 °F -10.0 °F 1.4 °F 73% 29.82 in 10.0 mi West 18.4 mph 25.3 mph N/A   Clear
3:11 AM 8.6 °F -10.0 °F 1.4 °F 73% 29.82 in 10.0 mi West 18.4 mph 24.2 mph N/A   Clear
3:31 AM 6.8 °F -11.8 °F -0.4 °F 72% 29.83 in 10.0 mi West 17.3 mph 23.0 mph N/A   Clear
3:51 AM 6.8 °F -10.0 °F -0.4 °F 72% 29.83 in 10.0 mi West 13.8 mph 19.6 mph N/A   Clear
4:11 AM 6.8 °F -10.7 °F -0.4 °F 72% 29.84 in 10.0 mi West 15.0 mph 20.7 mph N/A   Clear
4:32 AM 6.8 °F -10.7 °F -0.4 °F 72% 29.84 in 10.0 mi West 15.0 mph 23.0 mph N/A   Clear
4:51 AM 6.8 °F -11.8 °F -0.4 °F 72% 29.85 in 10.0 mi West 17.3 mph 24.2 mph N/A   Clear
5:11 AM 6.8 °F -11.3 °F -0.4 °F 72% 29.86 in 10.0 mi West 16.1 mph 26.5 mph N/A   Clear
5:31 AM 6.8 °F -11.8 °F -0.4 °F 72% 29.87 in 10.0 mi West 17.3 mph 21.9 mph N/A   Clear
5:51 AM 5.0 °F -12.3 °F -2.2 °F 72% 29.88 in 10.0 mi West 13.8 mph 21.9 mph N/A   Clear
6:11 AM 5.0 °F -13.0 °F -2.2 °F 72% 29.89 in 10.0 mi West 15.0 mph 19.6 mph N/A   Clear
6:51 AM 5.0 °F -10.8 °F -2.2 °F 72% 29.91 in 10.0 mi West 11.5 mph 18.4 mph N/A   Clear
7:11 AM 5.0 °F -13.0 °F -2.2 °F 72% 29.92 in 10.0 mi West 15.0 mph 19.6 mph N/A   Clear
7:32 AM 3.2 °F -13.9 °F -2.2 °F 78% 29.94 in 10.0 mi West 12.7 mph 21.9 mph N/A   Clear
7:51 AM 3.2 °F -13.1 °F -2.2 °F 78% 29.95 in 10.0 mi West 11.5 mph - N/A   Clear
8:11 AM 5.0 °F -13.0 °F -2.2 °F 72% 29.95 in 10.0 mi West 15.0 mph 18.4 mph N/A   Clear
8:32 AM 5.0 °F -13.6 °F -2.2 °F 72% 29.96 in 10.0 mi West 16.1 mph 23.0 mph N/A   Clear
8:51 AM 6.8 °F -11.3 °F -2.2 °F 67% 29.97 in 10.0 mi West 16.1 mph 20.7 mph N/A   Clear
9:11 AM 6.8 °F -11.8 °F -2.2 °F 67% 29.98 in 10.0 mi West 17.3 mph - N/A   Clear
9:31 AM 8.6 °F -10.0 °F -2.2 °F 62% 29.98 in 10.0 mi West 18.4 mph 24.2 mph N/A   Clear
9:51 AM 8.6 °F -7.0 °F -2.2 °F 62% 29.99 in 10.0 mi West 12.7 mph 23.0 mph N/A   Clear
10:11 AM 8.6 °F -9.5 °F -0.4 °F 67% 30.00 in 10.0 mi West 17.3 mph 24.2 mph N/A   Clear
10:31 AM 10.4 °F -5.4 °F -0.4 °F 62% 30.00 in 10.0 mi WNW 13.8 mph 23.0 mph N/A   Clear
10:51 AM 10.4 °F -5.4 °F -0.4 °F 62% 30.01 in 10.0 mi West 13.8 mph 20.7 mph N/A   Clear
11:12 AM 12.2 °F -3.7 °F -0.4 °F 57% 30.02 in 10.0 mi West 15.0 mph 19.6 mph N/A   Clear
11:31 AM 12.2 °F -4.8 °F -0.4 °F 57% 30.02 in 10.0 mi West 17.3 mph - N/A   Clear
11:51 AM 14.0 °F -3.0 °F -0.4 °F 53% 30.02 in 10.0 mi West 18.4 mph 24.2 mph N/A   Clear
12:12 PM 14.0 °F -1.4 °F 1.4 °F 57% 30.02 in 10.0 mi West 15.0 mph - N/A   Clear
12:31 PM 15.8 °F 1.4 °F 1.4 °F 53% 30.03 in 10.0 mi West 13.8 mph 23.0 mph N/A   Clear
12:51 PM 15.8 °F -1.1 °F 1.4 °F 53% 30.03 in 10.0 mi West 19.6 mph 23.0 mph N/A   Clear
1:12 PM 17.6 °F 0.9 °F 1.4 °F 49% 30.03 in 10.0 mi West 20.7 mph 24.2 mph N/A   Clear
1:31 PM 17.6 °F 4.3 °F 3.2 °F 53% 30.03 in 10.0 mi West 12.7 mph 21.9 mph N/A   Clear
1:51 PM 17.6 °F 3.7 °F 3.2 °F 53% 30.03 in 10.0 mi West 13.8 mph 21.9 mph N/A   Clear
2:12 PM 17.6 °F 3.7 °F 3.2 °F 53% 30.04 in 10.0 mi West 13.8 mph 19.6 mph N/A   Clear
2:31 PM 19.4 °F 5.5 °F 3.2 °F 49% 30.04 in 10.0 mi West 15.0 mph 25.3 mph N/A   Clear
2:51 PM 19.4 °F 3.6 °F 3.2 °F 49% 30.04 in 10.0 mi West 19.6 mph - N/A   Clear
3:12 PM 19.4 °F 3.2 °F 1.4 °F 46% 30.04 in 10.0 mi West 20.7 mph 25.3 mph N/A   Clear
3:31 PM 19.4 °F 5.0 °F 3.2 °F 49% 30.04 in 10.0 mi West 16.1 mph 21.9 mph N/A   Clear
3:51 PM 19.4 °F 4.5 °F 3.2 °F 49% 30.05 in 10.0 mi WNW 17.3 mph - N/A   Scattered Clouds
4:12 PM 19.4 °F 5.5 °F 3.2 °F 49% 30.05 in 10.0 mi West 15.0 mph 23.0 mph N/A   Mostly Cloudy
4:31 PM 19.4 °F 5.0 °F 3.2 °F 49% 30.06 in 10.0 mi West 16.1 mph 21.9 mph N/A   Mostly Cloudy
4:51 PM 19.4 °F 3.6 °F 1.4 °F 46% 30.07 in 10.0 mi West 19.6 mph 28.8 mph N/A   Mostly Cloudy
5:12 PM 17.6 °F 0.1 °F 1.4 °F 49% 30.08 in 1.0 mi West 23.0 mph 29.9 mph N/A Snow Light Snow
5:31 PM 17.6 °F 0.1 °F 1.4 °F 49% 30.08 in 0.5 mi West 23.0 mph 28.8 mph N/A Snow Light Snow
5:51 PM 17.6 °F 0.9 °F 1.4 °F 49% 30.09 in 1.2 mi West 20.7 mph 26.5 mph N/A Snow Light Snow
6:12 PM 15.8 °F -0.6 °F -0.4 °F 49% 30.10 in 7.0 mi West 18.4 mph 23.0 mph N/A Snow Light Snow
6:31 PM 15.8 °F 0.9 °F -0.4 °F 49% 30.11 in 7.0 mi West 15.0 mph 26.5 mph N/A Snow Light Snow
6:51 PM 14.0 °F -3.0 °F -0.4 °F 53% 30.11 in 10.0 mi West 18.4 mph 25.3 mph N/A   Clear
7:12 PM 12.2 °F -4.3 °F -2.2 °F 53% 30.12 in 10.0 mi West 16.1 mph 21.9 mph N/A   Clear
7:31 PM 12.2 °F -4.3 °F -2.2 °F 53% 30.13 in 10.0 mi West 16.1 mph 24.2 mph N/A   Clear
7:51 PM 12.2 °F -3.7 °F -2.2 °F 53% 30.13 in 10.0 mi West 15.0 mph - N/A   Clear
8:12 PM 10.4 °F -4.8 °F -2.2 °F 57% 30.14 in 10.0 mi West 12.7 mph 20.7 mph N/A   Clear
8:51 PM 8.6 °F -7.7 °F -2.2 °F 62% 30.15 in 10.0 mi West 13.8 mph 21.9 mph N/A   Clear
9:12 PM 8.6 °F -7.7 °F -4.0 °F 57% 30.15 in 10.0 mi West 13.8 mph - N/A   Clear
9:31 PM 8.6 °F -8.3 °F -4.0 °F 57% 30.15 in 10.0 mi West 15.0 mph - N/A   Clear
9:51 PM - - - N/A% 30.15 in 10.0 mi West 15.0 mph 19.6 mph N/A   Clear
10:12 PM 6.8 °F -10.7 °F -5.8 °F 56% 30.15 in 10.0 mi West 15.0 mph 21.9 mph N/A   Clear
10:31 PM 6.8 °F -10.0 °F -5.8 °F 56% 30.15 in 10.0 mi West 13.8 mph 21.9 mph N/A   Clear
10:51 PM 6.8 °F -10.7 °F -5.8 °F 56% 30.15 in 10.0 mi West 15.0 mph - N/A   Clear
11:11 PM 6.8 °F -11.3 °F -5.8 °F 56% 30.15 in 10.0 mi West 16.1 mph - N/A   Clear
11:31 PM 6.8 °F -10.0 °F -5.8 °F 56% 30.15 in 10.0 mi West 13.8 mph 19.6 mph N/A   Clear
11:51 PM 6.8 °F -9.3 °F -5.8 °F 56% 30.16 in 10.0 mi West 12.7 mph - N/A   Clear